| time (UTC) | temp F | wind direction | speed MPH | gust MPH | rain 1hr in | rain 24hr in | rain mn in | humidity % | barometer mb |
| 20260906233355 | 73 | 219 | 14.0 | 25.0 | 0.00 | 0.00 | 0.00 | 36 | 1024.2 |
| 20260906232850 | 73 | 218 | 17.0 | 22.0 | 0.00 | 0.00 | 0.00 | 37 | 1023.9 |
| 20260906232349 | 73 | 203 | 16.0 | 19.0 | 0.00 | 0.00 | 0.00 | 37 | 1023.9 |
| 20260906231844 | 73 | 208 | 21.0 | 23.0 | 0.00 | 0.00 | 0.00 | 36 | 1024.2 |
| 20260906231339 | 73 | 176 | 14.0 | 17.0 | 0.00 | 0.00 | 0.00 | 37 | 1024.1 |
| 20260906230838 | 73 | 183 | 13.0 | 18.0 | 0.00 | 0.00 | 0.00 | 38 | 1024.1 |
| 20260906230334 | 73 | 186 | 16.0 | 23.0 | 0.00 | 0.00 | 0.00 | 38 | 1024.1 |
| 20260906225832 | 73 | 187 | 13.0 | 15.0 | 0.00 | 0.00 | 0.00 | 37 | 1024.2 |
| 20260906225328 | 73 | 198 | 11.0 | 15.0 | 0.00 | 0.00 | 0.00 | 37 | 1024.5 |
| 20260906224823 | 73 | 198 | 11.0 | 14.0 | 0.00 | 0.00 | 0.00 | 36 | 1024.8 |
| 20260906224320 | 74 | 196 | 9.0 | 19.0 | 0.00 | 0.00 | 0.00 | 38 | 1024.8 |
| 20260906223816 | 74 | 181 | 13.0 | 18.0 | 0.00 | 0.00 | 0.00 | 36 | 1024.7 |
| 20260906223312 | 74 | 212 | 10.0 | 15.0 | 0.00 | 0.00 | 0.00 | 35 | 1024.8 |
| 20260906222809 | 74 | 206 | 15.0 | 21.0 | 0.00 | 0.00 | 0.00 | 34 | 1024.7 |
| 20260906222308 | 74 | 193 | 16.0 | 19.0 | 0.00 | 0.00 | 0.00 | 34 | 1024.8 |
| 20260906221806 | 74 | 196 | 15.0 | 17.0 | 0.00 | 0.00 | 0.00 | 34 | 1024.8 |
| 20260906221301 | 74 | 216 | 17.0 | 22.0 | 0.00 | 0.00 | 0.00 | 33 | 1024.9 |
| 20260906220757 | 74 | 198 | 17.0 | 22.0 | 0.00 | 0.00 | 0.00 | 35 | 1024.8 |
| 20260906220251 | 74 | 204 | 15.0 | 19.0 | 0.00 | 0.00 | 0.00 | 36 | 1025.0 |
| 20260906215751 | 74 | 209 | 16.0 | 21.0 | 0.00 | 0.00 | 0.00 | 35 | 1025.0 |
| 20260906215250 | 73 | 205 | 14.0 | 17.0 | 0.00 | 0.00 | 0.00 | 36 | 1024.8 |
| 20260906214749 | 74 | 244 | 14.0 | 21.0 | 0.00 | 0.00 | 0.00 | 37 | 1025.1 |
| 20260906214244 | 73 | 219 | 17.0 | 27.0 | 0.00 | 0.00 | 0.00 | 36 | 1025.0 |
| 20260906213743 | 73 | 203 | 20.0 | 26.0 | 0.00 | 0.00 | 0.00 | 38 | 1025.0 |
| 20260906213243 | 73 | 197 | 17.0 | 24.0 | 0.00 | 0.00 | 0.00 | 34 | 1025.0 |
| 20260906212740 | 73 | 206 | 25.0 | 27.0 | 0.00 | 0.00 | 0.00 | 34 | 1024.7 |
| 20260906212236 | 73 | 183 | 17.0 | 23.0 | 0.00 | 0.00 | 0.00 | 37 | 1025.0 |
| 20260906211735 | 73 | 184 | 13.0 | 18.0 | 0.00 | 0.00 | 0.00 | 36 | 1025.0 |
| 20260906211231 | 74 | 207 | 21.0 | 27.0 | 0.00 | 0.00 | 0.00 | 33 | 1025.4 |
| 20260906210726 | 74 | 193 | 24.0 | 32.0 | 0.00 | 0.00 | 0.00 | 33 | 1025.3 |
| 20260906210221 | 74 | 204 | 24.0 | 27.0 | 0.00 | 0.00 | 0.00 | 35 | 1025.4 |
| 20260906205716 | 74 | 202 | 18.0 | 26.0 | 0.00 | 0.00 | 0.00 | 33 | 1025.3 |
| 20260906205212 | 73 | 192 | 16.0 | 26.0 | 0.00 | 0.00 | 0.00 | 34 | 1025.5 |
| 20260906204707 | 73 | 189 | 19.0 | 26.0 | 0.00 | 0.00 | 0.00 | 36 | 1025.3 |
| 20260906204206 | 73 | 196 | 19.0 | 25.0 | 0.00 | 0.00 | 0.00 | 33 | 1025.4 |
| 20260906203706 | 73 | 217 | 21.0 | 23.0 | 0.00 | 0.00 | 0.00 | 35 | 1025.7 |
| 20260906203201 | 73 | 189 | 21.0 | 27.0 | 0.00 | 0.00 | 0.00 | 33 | 1025.6 |
| 20260906202658 | 73 | 204 | 13.0 | 22.0 | 0.00 | 0.00 | 0.00 | 37 | 1025.5 |
| 20260906202157 | 73 | 207 | 19.0 | 25.0 | 0.00 | 0.00 | 0.00 | 33 | 1025.9 |
| 20260906201653 | 73 | 206 | 23.0 | 26.0 | 0.00 | 0.00 | 0.00 | 35 | 1025.7 |
| 20260906201151 | 73 | 210 | 21.0 | 31.0 | 0.00 | 0.00 | 0.00 | 35 | 1025.7 |
| 20260906200648 | 73 | 189 | 19.0 | 25.0 | 0.00 | 0.00 | 0.00 | 34 | 1025.7 |
| 20260906200143 | 73 | 205 | 23.0 | 29.0 | 0.00 | 0.00 | 0.00 | 32 | 1025.6 |
| 20260906195638 | 73 | 200 | 27.0 | 31.0 | 0.00 | 0.00 | 0.00 | 34 | 1025.7 |
| 20260906195135 | 73 | 208 | 19.0 | 31.0 | 0.00 | 0.00 | 0.00 | 35 | 1025.7 |
| 20260906194631 | 73 | 187 | 23.0 | 29.0 | 0.00 | 0.00 | 0.00 | 35 | 1025.6 |
| 20260906194126 | 73 | 188 | 25.0 | 31.0 | 0.00 | 0.00 | 0.00 | 36 | 1025.7 |
| 20260906193626 | 73 | 194 | 25.0 | 33.0 | 0.00 | 0.00 | 0.00 | 37 | 1025.9 |
| 20260906193121 | 73 | 188 | 27.0 | 34.0 | 0.00 | 0.00 | 0.00 | 32 | 1025.9 |
| 20260906192617 | 73 | 218 | 17.0 | 32.0 | 0.00 | 0.00 | 0.00 | 33 | 1025.9 |
| 20260906192115 | 73 | 207 | 31.0 | 36.0 | 0.00 | 0.00 | 0.00 | 31 | 1025.7 |
| 20260906191611 | 73 | 200 | 29.0 | 32.0 | 0.00 | 0.00 | 0.00 | 34 | 1026.0 |
| 20260906191111 | 73 | 197 | 26.0 | 33.0 | 0.00 | 0.00 | 0.00 | 30 | 1025.7 |
| 20260906190610 | 74 | 204 | 24.0 | 32.0 | 0.00 | 0.00 | 0.00 | 34 | 1026.1 |
| 20260906190105 | 73 | 203 | 21.0 | 32.0 | 0.00 | 0.00 | 0.00 | 32 | 1026.3 |
| 20260906185604 | 73 | 227 | 19.0 | 31.0 | 0.00 | 0.00 | 0.00 | 34 | 1026.0 |
| 20260906185103 | 73 | 205 | 24.0 | 27.0 | 0.00 | 0.00 | 0.00 | 32 | 1026.0 |
| 20260906184558 | 72 | 207 | 19.0 | 27.0 | 0.00 | 0.00 | 0.00 | 35 | 1026.0 |
| 20260906184054 | 72 | 186 | 23.0 | 32.0 | 0.00 | 0.00 | 0.00 | 30 | 1026.1 |
| 20260906183550 | 73 | 202 | 27.0 | 32.0 | 0.00 | 0.00 | 0.00 | 34 | 1026.1 |
| 20260906183046 | 73 | 219 | 27.0 | 31.0 | 0.00 | 0.00 | 0.00 | 30 | 1026.1 |
| 20260906182546 | 73 | 173 | 22.0 | 29.0 | 0.00 | 0.00 | 0.00 | 33 | 1026.2 |
| 20260906182042 | 73 | 187 | 21.0 | 26.0 | 0.00 | 0.00 | 0.00 | 31 | 1026.3 |
| 20260906181537 | 73 | 205 | 27.0 | 33.0 | 0.00 | 0.00 | 0.00 | 30 | 1026.5 |
| 20260906181033 | 73 | 200 | 27.0 | 30.0 | 0.00 | 0.00 | 0.00 | 31 | 1026.5 |
| 20260906180528 | 73 | 192 | 19.0 | 32.0 | 0.00 | 0.00 | 0.00 | 29 | 1026.3 |
| 20260906180027 | 73 | 182 | 19.0 | 26.0 | 0.00 | 0.00 | 0.00 | 34 | 1026.2 |
| 20260906175526 | 73 | 208 | 20.0 | 27.0 | 0.00 | 0.00 | 0.00 | 31 | 1026.5 |
| 20260906175026 | 72 | 191 | 20.0 | 25.0 | 0.00 | 0.00 | 0.00 | 33 | 1026.3 |
| 20260906174524 | 73 | 203 | 25.0 | 27.0 | 0.00 | 0.00 | 0.00 | 32 | 1026.7 |
| 20260906174019 | 72 | 197 | 17.0 | 24.0 | 0.00 | 0.00 | 0.00 | 36 | 1026.6 |
| 20260906173514 | 72 | 176 | 20.0 | 23.0 | 0.00 | 0.00 | 0.00 | 33 | 1026.7 |
| 20260906173010 | 72 | 194 | 24.0 | 26.0 | 0.00 | 0.00 | 0.00 | 29 | 1027.1 |
| 20260906172505 | 72 | 202 | 20.0 | 23.0 | 0.00 | 0.00 | 0.00 | 34 | 1026.8 |
| 20260906172000 | 72 | 188 | 22.0 | 24.0 | 0.00 | 0.00 | 0.00 | 31 | 1026.6 |
| 20260906171454 | 72 | 217 | 19.0 | 23.0 | 0.00 | 0.00 | 0.00 | 33 | 1026.7 |
| 20260906170950 | 72 | 183 | 25.0 | 27.0 | 0.00 | 0.00 | 0.00 | 32 | 1026.8 |
| 20260906170446 | 72 | 187 | 18.0 | 25.0 | 0.00 | 0.00 | 0.00 | 36 | 1026.9 |
| 20260906165943 | 72 | 217 | 16.0 | 29.0 | 0.00 | 0.00 | 0.00 | 34 | 1026.9 |
| 20260906165442 | 71 | 184 | 16.0 | 21.0 | 0.00 | 0.00 | 0.00 | 37 | 1027.2 |
| 20260906164937 | 71 | 190 | 20.0 | 22.0 | 0.00 | 0.00 | 0.00 | 34 | 1027.1 |
| 20260906164436 | 71 | 184 | 18.0 | 24.0 | 0.00 | 0.00 | 0.00 | 34 | 1027.2 |
| 20260906163933 | 71 | 205 | 17.0 | 24.0 | 0.00 | 0.00 | 0.00 | 36 | 1027.3 |
| 20260906163428 | 70 | 188 | 22.0 | 23.0 | 0.00 | 0.00 | 0.00 | 35 | 1027.3 |
| 20260906162926 | 70 | 186 | 21.0 | 27.0 | 0.00 | 0.00 | 0.00 | 39 | 1027.1 |
| 20260906162425 | 70 | 185 | 23.0 | 26.0 | 0.00 | 0.00 | 0.00 | 39 | 1027.3 |
| 20260906161920 | 70 | 195 | 22.0 | 27.0 | 0.00 | 0.00 | 0.00 | 36 | 1027.3 |
| 20260906161419 | 70 | 182 | 24.0 | 25.0 | 0.00 | 0.00 | 0.00 | 38 | 1027.3 |
| 20260906160919 | 70 | 156 | 21.0 | 25.0 | 0.00 | 0.00 | 0.00 | 38 | 1027.1 |
| 20260906160412 | 70 | 172 | 22.0 | 26.0 | 0.00 | 0.00 | 0.00 | 36 | 1027.3 |
| 20260906155911 | 70 | 181 | 25.0 | 27.0 | 0.00 | 0.00 | 0.00 | 35 | 1027.4 |
| 20260906155404 | 70 | 188 | 19.0 | 23.0 | 0.00 | 0.00 | 0.00 | 39 | 1027.3 |
| 20260906154901 | 69 | 174 | 16.0 | 21.0 | 0.00 | 0.00 | 0.00 | 40 | 1027.5 |
| 20260906154355 | 70 | 183 | 14.0 | 21.0 | 0.00 | 0.00 | 0.00 | 40 | 1027.4 |
| 20260906153854 | 69 | 179 | 15.0 | 19.0 | 0.00 | 0.00 | 0.00 | 36 | 1027.4 |
| 20260906153353 | 65 | 196 | 8.0 | 10.0 | 0.00 | 0.00 | 0.00 | 44 | 1027.7 |
| 20260906152849 | 66 | 199 | 8.0 | 9.0 | 0.00 | 0.00 | 0.00 | 44 | 1027.7 |
| 20260906152348 | 68 | 195 | 5.0 | 6.0 | 0.00 | 0.00 | 0.00 | 40 | 1027.9 |
| 20260906151848 | 68 | 155 | 1.0 | 1.0 | 0.00 | 0.00 | 0.00 | 37 | 1027.9 |
| 20260906151344 | 66 | 149 | 0.0 | 1.0 | 0.00 | 0.00 | 0.00 | 40 | 1028.0 |
| 20260906150839 | 66 | 217 | 1.0 | 3.0 | 0.00 | 0.00 | 0.00 | 39 | 1028.0 |
| 20260906150335 | 66 | 0 | 3.0 | 3.0 | 0.00 | 0.00 | 0.00 | 39 | 1027.8 |
| 20260906145834 | 65 | 179 | 0.0 | 1.0 | 0.00 | 0.00 | 0.00 | 42 | 1027.9 |
| 20260906145332 | 65 | 165 | 1.0 | 2.0 | 0.00 | 0.00 | 0.00 | 42 | 1027.7 |
| 20260906144828 | 65 | 200 | 0.0 | 0.0 | 0.00 | 0.00 | 0.00 | 43 | 1027.8 |
| 20260906144323 | 64 | 185 | 0.0 | 0.0 | 0.00 | 0.00 | 0.00 | 48 | 1027.8 |
| 20260906143822 | 64 | 100 | 1.0 | 2.0 | 0.00 | 0.00 | 0.00 | 50 | 1027.7 |
| 20260906143319 | 63 | 163 | 0.0 | 0.0 | 0.00 | 0.00 | 0.00 | 54 | 1028.0 |
| 20260906142814 | 62 | 249 | 1.0 | 2.0 | 0.00 | 0.00 | 0.00 | 51 | 1027.8 |
| 20260906142309 | 61 | 96 | 1.0 | 2.0 | 0.00 | 0.00 | 0.00 | 47 | 1027.7 |
| 20260906141808 | 60 | 110 | 1.0 | 3.0 | 0.00 | 0.00 | 0.00 | 46 | 1027.7 |
| 20260906141303 | 59 | 6 | 2.0 | 3.0 | 0.00 | 0.00 | 0.00 | 49 | 1027.9 |
| 20260906140802 | 59 | 79 | 2.0 | 2.0 | 0.00 | 0.00 | 0.00 | 51 | 1027.7 |
| 20260906140257 | 58 | 210 | 0.0 | 2.0 | 0.00 | 0.00 | 0.00 | 48 | 1027.7 |
| 20260906135754 | 57 | 244 | 0.0 | 4.0 | 0.00 | 0.00 | 0.00 | 56 | 1027.7 |
| 20260906135250 | 57 | 24 | 4.0 | 4.0 | 0.00 | 0.00 | 0.00 | 55 | 1027.9 |
| 20260906134745 | 58 | 22 | 3.0 | 4.0 | 0.00 | 0.00 | 0.00 | 53 | 1027.7 |
| 20260906134240 | 58 | 3 | 3.0 | 3.0 | 0.00 | 0.00 | 0.00 | 49 | 1027.5 |
| 20260906133736 | 57 | 104 | 1.0 | 2.0 | 0.00 | 0.00 | 0.00 | 51 | 1027.7 |
| 20260906133231 | 56 | 178 | 0.0 | 0.0 | 0.00 | 0.00 | 0.00 | 51 | 1027.9 |
| 20260906132726 | 55 | 192 | 0.0 | 0.0 | 0.00 | 0.00 | 0.00 | 57 | 1027.8 |
| 20260906132222 | 56 | 203 | 0.0 | 0.0 | 0.00 | 0.00 | 0.00 | 52 | 1027.7 |
| 20260906131717 | 55 | 7 | 2.0 | 3.0 | 0.00 | 0.00 | 0.00 | 55 | 1027.7 |
| 20260906131212 | 55 | 301 | 2.0 | 2.0 | 0.00 | 0.00 | 0.00 | 51 | 1027.4 |
| 20260906130708 | 56 | 358 | 2.0 | 3.0 | 0.00 | 0.00 | 0.00 | 52 | 1027.5 |
| 20260906130203 | 56 | 240 | 1.0 | 2.0 | 0.00 | 0.00 | 0.00 | 52 | 1027.3 |
| 20260906125701 | 55 | 239 | 1.0 | 1.0 | 0.00 | 0.00 | 0.00 | 54 | 1027.3 |
| 20260906125200 | 55 | 242 | 1.0 | 2.0 | 0.00 | 0.00 | 0.00 | 50 | 1027.5 |
| 20260906124655 | 55 | 207 | 0.0 | 0.0 | 0.00 | 0.00 | 0.00 | 53 | 1027.4 |
| 20260906124150 | 55 | 211 | 0.0 | 0.0 | 0.00 | 0.00 | 0.00 | 53 | 1027.3 |
| 20260906123649 | 55 | 172 | 1.0 | 1.0 | 0.00 | 0.00 | 0.00 | 55 | 1027.5 |
| 20260906123145 | 56 | 204 | 0.0 | 0.0 | 0.00 | 0.00 | 0.00 | 55 | 1027.4 |
| 20260906122644 | 56 | 285 | 2.0 | 2.0 | 0.00 | 0.00 | 0.00 | 51 | 1027.7 |
| 20260906122139 | 55 | 276 | 1.0 | 1.0 | 0.00 | 0.00 | 0.00 | 54 | 1027.3 |
| 20260906121635 | 56 | 201 | 0.0 | 0.0 | 0.00 | 0.00 | 0.00 | 53 | 1027.4 |
| 20260906121132 | 56 | 204 | 0.0 | 0.0 | 0.00 | 0.00 | 0.00 | 54 | 1027.5 |
| 20260906120627 | 56 | 210 | 0.0 | 0.0 | 0.00 | 0.00 | 0.00 | 54 | 1027.5 |
| 20260906120125 | 56 | 213 | 0.0 | 0.0 | 0.00 | 0.00 | 0.00 | 51 | 1027.5 |
| 20260906115625 | 57 | 193 | 0.0 | 0.0 | 0.00 | 0.00 | 0.00 | 50 | 1027.7 |
| 20260906115120 | 56 | 243 | 0.0 | 0.0 | 0.00 | 0.00 | 0.00 | 51 | 1027.4 |
| 20260906114619 | 56 | 198 | 0.0 | 0.0 | 0.00 | 0.00 | 0.00 | 53 | 1027.5 |
| 20260906114115 | 56 | 150 | 0.0 | 1.0 | 0.00 | 0.00 | 0.00 | 57 | 1027.5 |
| 20260906113614 | 56 | 214 | 1.0 | 1.0 | 0.00 | 0.00 | 0.00 | 56 | 1027.5 |
| 20260906113109 | 56 | 180 | 0.0 | 1.0 | 0.00 | 0.00 | 0.00 | 48 | 1027.7 |
| 20260906112609 | 56 | 238 | 2.0 | 2.0 | 0.00 | 0.00 | 0.00 | 51 | 1027.4 |
| 20260906112105 | 57 | 347 | 1.0 | 3.0 | 0.00 | 0.00 | 0.00 | 50 | 1027.8 |
| 20260906111605 | 59 | 340 | 3.0 | 4.0 | 0.00 | 0.00 | 0.00 | 45 | 1027.8 |
| 20260906111100 | 59 | 294 | 2.0 | 3.0 | 0.00 | 0.00 | 0.00 | 43 | 1027.8 |
| 20260906110600 | 59 | 335 | 3.0 | 3.0 | 0.00 | 0.00 | 0.00 | 44 | 1027.7 |
| 20260906110100 | 59 | 314 | 4.0 | 4.0 | 0.00 | 0.00 | 0.00 | 44 | 1027.7 |
| 20260906105554 | 58 | 228 | 1.0 | 1.0 | 0.00 | 0.00 | 0.00 | 46 | 1027.3 |
| 20260906105051 | 58 | 212 | 0.0 | 2.0 | 0.00 | 0.00 | 0.00 | 46 | 1027.3 |
| 20260906104549 | 58 | 311 | 4.0 | 4.0 | 0.00 | 0.00 | 0.00 | 45 | 1027.4 |
| 20260906104044 | 57 | 339 | 4.0 | 4.0 | 0.00 | 0.00 | 0.00 | 49 | 1027.4 |
| 20260906103542 | 57 | 348 | 4.0 | 4.0 | 0.00 | 0.00 | 0.00 | 54 | 1027.5 |
| 20260906103037 | 57 | 300 | 1.0 | 2.0 | 0.00 | 0.00 | 0.00 | 53 | 1027.4 |
| 20260906102538 | 57 | 208 | 0.0 | 2.0 | 0.00 | 0.00 | 0.00 | 55 | 1027.7 |
| 20260906102033 | 58 | 96 | 0.0 | 2.0 | 0.00 | 0.00 | 0.00 | 51 | 1027.5 |
| 20260906101533 | 58 | 198 | 0.0 | 0.0 | 0.00 | 0.00 | 0.00 | 49 | 1027.4 |
| 20260906101027 | 59 | 210 | 0.0 | 0.0 | 0.00 | 0.00 | 0.00 | 47 | 1027.4 |
| 20260906100524 | 59 | 204 | 0.0 | 0.0 | 0.00 | 0.00 | 0.00 | 47 | 1027.3 |
| 20260906100023 | 59 | 230 | 1.0 | 2.0 | 0.00 | 0.00 | 0.00 | 46 | 1027.4 |
| 20260906095518 | 60 | 343 | 4.0 | 6.0 | 0.00 | 0.00 | 0.00 | 46 | 1027.3 |
| 20260906095014 | 61 | 247 | 2.0 | 2.0 | 0.00 | 0.00 | 0.00 | 46 | 1027.2 |
| 20260906094512 | 60 | 243 | 1.0 | 1.0 | 0.00 | 0.00 | 0.00 | 46 | 1027.1 |
| 20260906094008 | 60 | 310 | 4.0 | 4.0 | 0.00 | 0.00 | 0.00 | 47 | 1027.3 |
| 20260906093504 | 62 | 306 | 3.0 | 4.0 | 0.00 | 0.00 | 0.00 | 44 | 1027.1 |
| 20260906092959 | 63 | 143 | 2.0 | 2.0 | 0.00 | 0.00 | 0.00 | 44 | 1027.1 |
| 20260906092459 | 61 | 216 | 2.0 | 3.0 | 0.00 | 0.00 | 0.00 | 46 | 1027.1 |
| 20260906091954 | 60 | 223 | 1.0 | 3.0 | 0.00 | 0.00 | 0.00 | 46 | 1027.2 |
| 20260906091450 | 61 | 255 | 6.0 | 6.0 | 0.00 | 0.00 | 0.00 | 46 | 1027.2 |
| 20260906090947 | 61 | 192 | 1.0 | 2.0 | 0.00 | 0.00 | 0.00 | 46 | 1027.1 |
| 20260906090441 | 61 | 231 | 2.0 | 2.0 | 0.00 | 0.00 | 0.00 | 46 | 1027.1 |
| 20260906085941 | 62 | 195 | 2.0 | 3.0 | 0.00 | 0.00 | 0.00 | 44 | 1027.2 |
| 20260906085440 | 63 | 150 | 0.0 | 1.0 | 0.00 | 0.00 | 0.00 | 44 | 1027.2 |
| 20260906084940 | 63 | 121 | 2.0 | 4.0 | 0.00 | 0.00 | 0.00 | 42 | 1027.1 |
| 20260906084435 | 62 | 186 | 2.0 | 3.0 | 0.00 | 0.00 | 0.00 | 43 | 1027.2 |
| 20260906083933 | 61 | 183 | 2.0 | 2.0 | 0.00 | 0.00 | 0.00 | 46 | 1027.1 |
| 20260906083430 | 61 | 219 | 1.0 | 2.0 | 0.00 | 0.00 | 0.00 | 43 | 1027.1 |
| 20260906082929 | 61 | 216 | 2.0 | 2.0 | 0.00 | 0.00 | 0.00 | 45 | 1027.2 |
| 20260906082424 | 62 | 223 | 1.0 | 1.0 | 0.00 | 0.00 | 0.00 | 45 | 1027.1 |
| 20260906081920 | 62 | 195 | 0.0 | 1.0 | 0.00 | 0.00 | 0.00 | 43 | 1027.2 |
| 20260906081415 | 64 | 192 | 0.0 | 2.0 | 0.00 | 0.00 | 0.00 | 42 | 1027.1 |
| 20260906080911 | 64 | 130 | 2.0 | 4.0 | 0.00 | 0.00 | 0.00 | 41 | 1027.2 |
| 20260906080408 | 63 | 160 | 1.0 | 2.0 | 0.00 | 0.00 | 0.00 | 43 | 1027.4 |
| 20260906075906 | 62 | 114 | 1.0 | 3.0 | 0.00 | 0.00 | 0.00 | 43 | 1027.2 |
| 20260906075401 | 63 | 236 | 1.0 | 3.0 | 0.00 | 0.00 | 0.00 | 43 | 1027.2 |
| 20260906074857 | 64 | 119 | 2.0 | 4.0 | 0.00 | 0.00 | 0.00 | 42 | 1027.1 |
| 20260906074356 | 62 | 142 | 3.0 | 4.0 | 0.00 | 0.00 | 0.00 | 43 | 1027.2 |
| 20260906073855 | 63 | 267 | 2.0 | 3.0 | 0.00 | 0.00 | 0.00 | 39 | 1027.2 |
| 20260906073350 | 63 | 183 | 2.0 | 2.0 | 0.00 | 0.00 | 0.00 | 46 | 1026.9 |
| 20260906072847 | 63 | 172 | 1.0 | 1.0 | 0.00 | 0.00 | 0.00 | 45 | 1027.1 |
| 20260906072342 | 63 | 193 | 0.0 | 0.0 | 0.00 | 0.00 | 0.00 | 43 | 1027.2 |
| 20260906071838 | 62 | 169 | 1.0 | 2.0 | 0.00 | 0.00 | 0.00 | 43 | 1027.2 |
| 20260906071333 | 63 | 9 | 2.0 | 2.0 | 0.00 | 0.00 | 0.00 | 43 | 1027.2 |
| 20260906070829 | 63 | 132 | 3.0 | 4.0 | 0.00 | 0.00 | 0.00 | 47 | 1027.2 |
| 20260906070325 | 64 | 154 | 1.0 | 2.0 | 0.00 | 0.00 | 0.00 | 45 | 1027.3 |
| 20260906065820 | 63 | 160 | 1.0 | 2.0 | 0.00 | 0.00 | 0.00 | 41 | 1026.9 |
| 20260906065315 | 62 | 191 | 0.0 | 1.0 | 0.00 | 0.00 | 0.00 | 42 | 1027.2 |
| 20260906064811 | 63 | 161 | 0.0 | 1.0 | 0.00 | 0.00 | 0.00 | 48 | 1026.8 |
| 20260906064307 | 63 | 204 | 0.0 | 2.0 | 0.00 | 0.00 | 0.00 | 47 | 1027.2 |
| 20260906063806 | 62 | 163 | 1.0 | 2.0 | 0.00 | 0.00 | 0.00 | 50 | 1027.1 |
| 20260906063302 | 62 | 181 | 1.0 | 1.0 | 0.00 | 0.00 | 0.00 | 46 | 1027.1 |
| 20260906062757 | 62 | 211 | 0.0 | 0.0 | 0.00 | 0.00 | 0.00 | 45 | 1027.2 |
| 20260906062256 | 62 | 170 | 0.0 | 1.0 | 0.00 | 0.00 | 0.00 | 44 | 1026.8 |
| 20260906061752 | 63 | 252 | 1.0 | 2.0 | 0.00 | 0.00 | 0.00 | 43 | 1027.2 |
| 20260906061248 | 63 | 120 | 2.0 | 2.0 | 0.00 | 0.00 | 0.00 | 45 | 1027.2 |
| 20260906060743 | 63 | 174 | 0.0 | 1.0 | 0.00 | 0.00 | 0.00 | 43 | 1026.9 |
| 20260906060241 | 63 | 134 | 1.0 | 2.0 | 0.00 | 0.00 | 0.00 | 43 | 1027.1 |
| 20260906055736 | 63 | 150 | 0.0 | 1.0 | 0.00 | 0.00 | 0.00 | 43 | 1026.8 |
| 20260906055231 | 62 | 159 | 1.0 | 2.0 | 0.00 | 0.00 | 0.00 | 43 | 1026.9 |
| 20260906054726 | 63 | 346 | 3.0 | 4.0 | 0.00 | 0.00 | 0.00 | 41 | 1026.8 |
| 20260906054222 | 65 | 11 | 3.0 | 4.0 | 0.00 | 0.00 | 0.00 | 41 | 1026.9 |
| 20260906053718 | 66 | 199 | 3.0 | 3.0 | 0.00 | 0.00 | 0.00 | 46 | 1026.9 |
| 20260906053213 | 65 | 205 | 4.0 | 4.0 | 0.00 | 0.00 | 0.00 | 38 | 1026.9 |
| 20260906052708 | 65 | 208 | 4.0 | 4.0 | 0.00 | 0.00 | 0.00 | 37 | 1026.9 |
| 20260906052205 | 65 | 192 | 3.0 | 3.0 | 0.00 | 0.00 | 0.00 | 35 | 1026.9 |
| 20260906051702 | 66 | 211 | 1.0 | 3.0 | 0.00 | 0.00 | 0.00 | 34 | 1026.9 |
| 20260906051200 | 66 | 207 | 3.0 | 4.0 | 0.00 | 0.00 | 0.00 | 32 | 1026.9 |
| 20260906050656 | 66 | 210 | 2.0 | 4.0 | 0.00 | 0.00 | 0.00 | 31 | 1027.2 |
| 20260906050151 | 66 | 191 | 5.0 | 7.0 | 0.00 | 0.00 | 0.00 | 33 | 1027.1 |
| 20260906045649 | 66 | 201 | 5.0 | 6.0 | 0.00 | 0.00 | 0.00 | 40 | 1026.9 |
| 20260906045145 | 67 | 184 | 5.0 | 6.0 | 0.00 | 0.00 | 0.00 | 38 | 1027.1 |
| 20260906044641 | 67 | 190 | 5.0 | 6.0 | 0.00 | 0.00 | 0.00 | 32 | 1026.9 |
| 20260906044136 | 68 | 202 | 4.0 | 6.0 | 0.00 | 0.00 | 0.00 | 36 | 1027.2 |
| 20260906043632 | 67 | 206 | 5.0 | 6.0 | 0.00 | 0.00 | 0.00 | 31 | 1027.1 |
| 20260906043127 | 67 | 217 | 1.0 | 2.0 | 0.00 | 0.00 | 0.00 | 30 | 1027.1 |
| 20260906042627 | 68 | 197 | 4.0 | 4.0 | 0.00 | 0.00 | 0.00 | 29 | 1026.9 |
| 20260906042122 | 68 | 190 | 3.0 | 4.0 | 0.00 | 0.00 | 0.00 | 31 | 1026.8 |
| 20260906041618 | 68 | 194 | 4.0 | 4.0 | 0.00 | 0.00 | 0.00 | 28 | 1026.8 |
| 20260906041118 | 69 | 212 | 2.0 | 6.0 | 0.00 | 0.00 | 0.00 | 30 | 1026.8 |
| 20260906040613 | 68 | 199 | 5.0 | 7.0 | 0.00 | 0.00 | 0.00 | 27 | 1026.8 |
| 20260906040109 | 68 | 211 | 3.0 | 4.0 | 0.00 | 0.00 | 0.00 | 29 | 1026.7 |
| 20260906035604 | 68 | 214 | 3.0 | 4.0 | 0.00 | 0.00 | 0.00 | 29 | 1026.7 |
| 20260906035059 | 66 | 198 | 4.0 | 6.0 | 0.00 | 0.00 | 0.00 | 32 | 1026.7 |
| 20260906034559 | 66 | 200 | 2.0 | 3.0 | 0.00 | 0.00 | 0.00 | 37 | 1026.7 |
| 20260906034054 | 67 | 186 | 0.0 | 0.0 | 0.00 | 0.00 | 0.00 | 34 | 1026.6 |
| 20260906033549 | 67 | 205 | 1.0 | 2.0 | 0.00 | 0.00 | 0.00 | 32 | 1026.3 |
| 20260906033045 | 66 | 186 | 2.0 | 3.0 | 0.00 | 0.00 | 0.00 | 32 | 1026.6 |
| 20260906032541 | 66 | 200 | 0.0 | 0.0 | 0.00 | 0.00 | 0.00 | 33 | 1026.5 |
| 20260906032036 | 67 | 257 | 1.0 | 2.0 | 0.00 | 0.00 | 0.00 | 37 | 1026.5 |
| 20260906031531 | 69 | 208 | 0.0 | 1.0 | 0.00 | 0.00 | 0.00 | 29 | 1026.3 |
| 20260906031027 | 70 | 207 | 2.0 | 2.0 | 0.00 | 0.00 | 0.00 | 25 | 1026.3 |
| 20260906030526 | 70 | 193 | 4.0 | 4.0 | 0.00 | 0.00 | 0.00 | 24 | 1026.2 |
| 20260906030026 | 71 | 207 | 4.0 | 4.0 | 0.00 | 0.00 | 0.00 | 24 | 1026.5 |
| 20260906025526 | 71 | 195 | 4.0 | 6.0 | 0.00 | 0.00 | 0.00 | 24 | 1026.2 |
| 20260906025024 | 70 | 200 | 4.0 | 4.0 | 0.00 | 0.00 | 0.00 | 25 | 1026.1 |
| 20260906024519 | 69 | 211 | 2.0 | 4.0 | 0.00 | 0.00 | 0.00 | 26 | 1025.9 |
| 20260906024019 | 70 | 204 | 0.0 | 0.0 | 0.00 | 0.00 | 0.00 | 28 | 1025.7 |
| 20260906023516 | 71 | 188 | 1.0 | 2.0 | 0.00 | 0.00 | 0.00 | 26 | 1025.7 |
| 20260906023010 | 71 | 195 | 1.0 | 3.0 | 0.00 | 0.00 | 0.00 | 25 | 1025.5 |
| 20260906022506 | 72 | 185 | 2.0 | 2.0 | 0.00 | 0.00 | 0.00 | 25 | 1025.6 |
| 20260906022001 | 72 | 185 | 2.0 | 3.0 | 0.00 | 0.00 | 0.00 | 25 | 1025.3 |
| 20260906021455 | 73 | 151 | 3.0 | 4.0 | 0.00 | 0.00 | 0.00 | 26 | 1025.3 |
| 20260906020950 | 73 | 165 | 2.0 | 3.0 | 0.00 | 0.00 | 0.00 | 26 | 1025.4 |
| 20260906020444 | 73 | 151 | 2.0 | 2.0 | 0.00 | 0.00 | 0.00 | 26 | 1025.3 |
| 20260906015944 | 73 | 184 | 2.0 | 2.0 | 0.00 | 0.00 | 0.00 | 26 | 1025.0 |
| 20260906015443 | 73 | 147 | 2.0 | 2.0 | 0.00 | 0.00 | 0.00 | 26 | 1025.1 |
| 20260906014943 | 73 | 146 | 3.0 | 3.0 | 0.00 | 0.00 | 0.00 | 24 | 1025.5 |
| 20260906014438 | 74 | 157 | 2.0 | 2.0 | 0.00 | 0.00 | 0.00 | 26 | 1025.4 |
| 20260906013934 | 74 | 151 | 1.0 | 3.0 | 0.00 | 0.00 | 0.00 | 25 | 1025.4 |
| 20260906013429 | 74 | 192 | 0.0 | 0.0 | 0.00 | 0.00 | 0.00 | 22 | 1025.4 |
| 20260906012925 | 74 | 196 | 0.0 | 0.0 | 0.00 | 0.00 | 0.00 | 22 | 1025.4 |
| 20260906012425 | 75 | 204 | 1.0 | 2.0 | 0.00 | 0.00 | 0.00 | 23 | 1025.4 |
| 20260906011924 | 76 | 201 | 2.0 | 3.0 | 0.00 | 0.00 | 0.00 | 21 | 1025.6 |
| 20260906011419 | 77 | 217 | 3.0 | 4.0 | 0.00 | 0.00 | 0.00 | 21 | 1025.3 |
| 20260906010915 | 77 | 207 | 2.0 | 4.0 | 0.00 | 0.00 | 0.00 | 20 | 1025.4 |
| 20260906010410 | 77 | 209 | 2.0 | 4.0 | 0.00 | 0.00 | 0.00 | 21 | 1025.5 |
| 20260906005906 | 78 | 200 | 4.0 | 6.0 | 0.00 | 0.00 | 0.00 | 19 | 1025.6 |
| 20260906005405 | 78 | 202 | 2.0 | 4.0 | 0.00 | 0.00 | 0.00 | 20 | 1025.5 |
| 20260906004904 | 78 | 207 | 4.0 | 8.0 | 0.00 | 0.00 | 0.00 | 20 | 1025.3 |
| 20260906004359 | 78 | 192 | 5.0 | 10.0 | 0.00 | 0.00 | 0.00 | 20 | 1025.3 |
| 20260906003854 | 78 | 193 | 4.0 | 9.0 | 0.00 | 0.00 | 0.00 | 19 | 1025.5 |
| 20260906003349 | 79 | 206 | 11.0 | 17.0 | 0.00 | 0.00 | 0.00 | 22 | 1025.7 |
| 20260906002845 | 78 | 230 | 6.0 | 8.0 | 0.00 | 0.00 | 0.00 | 18 | 1025.4 |
| 20260906002344 | 79 | 215 | 8.0 | 11.0 | 0.00 | 0.00 | 0.00 | 19 | 1025.4 |
| 20260906001840 | 79 | 200 | 4.0 | 10.0 | 0.00 | 0.00 | 0.00 | 19 | 1025.5 |
| 20260906001335 | 80 | 200 | 5.0 | 9.0 | 0.00 | 0.00 | 0.00 | 20 | 1025.3 |
| 20260906000830 | 79 | 256 | 3.0 | 7.0 | 0.00 | 0.00 | 0.00 | 19 | 1025.3 |
| 20260906000326 | 80 | 193 | 6.0 | 10.0 | 0.00 | 0.00 | 0.00 | 20 | 1025.3 |
| 20260905235820 | 80 | 217 | 5.0 | 13.0 | 0.00 | 0.00 | 0.00 | 20 | 1025.3 |
| 20260905235320 | 79 | 206 | 5.0 | 14.0 | 0.00 | 0.00 | 0.00 | 21 | 1025.3 |
| 20260905234815 | 79 | 196 | 5.0 | 10.0 | 0.00 | 0.00 | 0.00 | 19 | 1025.1 |
| 20260905234311 | 80 | 205 | 16.0 | 18.0 | 0.00 | 0.00 | 0.00 | 19 | 1025.3 |